Date String (YYYY-MM-DD hh:mm:ss) UTC,Instrument flags,absolute air pressure of the measurement (hPa),sample flow rate (lpm),inlet stack bypass flow (lpm),air temperature of the measurement (°C),ambient temperature measured by the external sensor (°C),aerosol sample conditioner tube jacket temperature (°C),OPC LED temperature (°C),internal box temperature (°C),relative humidity of the measurement (%),span deviation,mass concentration of particles derived from Lorenz-Mie calculation of OPC scattering (μg/m³),mass concentration of particles derived from Lorenz-Mie calculation of OPC scattering (μg/m³),mass concentration of particles derived from Lorenz-Mie calculation of OPC scattering (μg/m³)
DateTimeUTC,F1_M11,P_M11,Q1_M11,Q2_M11,T1_M11,T2_M11,T3_M11,T4_M11,T5_M11,U1_M11,ZSPAN_M11,X0_M11,X2_M11,X1_M11
2023-11-19 03:00:00,SystemResetWarning,0825.1,5.00,000.00,025.8,024.7,000.0,034.2,027.1,17.3,0000.0,0002.09,0001.30,0001.09
2023-11-19 03:01:00,SystemResetWarning,0825.2,4.99,000.00,025.8,024.6,000.0,034.2,027.1,17.4,0000.0,0002.06,0001.28,0001.08
2023-11-19 03:02:00,SystemResetWarning,0825.2,5.00,000.00,025.8,024.6,000.0,034.2,027.1,17.5,0000.0,0002.59,0001.31,0001.06
2023-11-19 03:03:00,SystemResetWarning,0825.2,5.01,000.00,025.8,024.6,000.0,034.2,027.1,17.6,0000.0,0003.50,0001.34,0001.04
2023-11-19 03:04:00,SystemResetWarning,0825.2,5.00,000.00,025.8,024.6,000.0,034.2,027.1,17.6,0000.0,0003.68,0001.34,0001.01
2023-11-19 03:05:00,SystemResetWarning,0825.2,5.01,000.00,025.8,024.6,000.0,034.2,027.1,17.5,0000.0,0004.34,0001.31,0000.99
2023-11-19 03:06:00,SystemResetWarning,0825.2,5.00,000.00,025.8,024.6,000.0,034.2,027.0,17.4,0000.0,0004.39,0001.27,0000.96
2023-11-19 03:07:00,SystemResetWarning,0825.2,5.00,000.00,025.7,024.5,000.0,034.2,027.0,17.4,0000.0,0004.71,0001.27,0000.94
2023-11-19 03:08:00,SystemResetWarning,0825.2,5.00,000.00,025.7,024.5,000.0,034.2,027.0,17.5,0000.0,0004.66,0001.24,0000.91
2023-11-19 03:09:00,SystemResetWarning,0825.2,5.00,000.00,025.7,024.5,000.0,034.1,026.9,17.5,0000.0,0004.81,0001.22,0000.90
2023-11-19 03:10:00,SystemResetWarning,0825.3,5.01,000.00,025.7,024.5,000.0,034.1,026.9,17.5,0000.0,0005.01,0001.22,0000.88
2023-11-19 03:11:00,SystemResetWarning,0825.3,5.00,000.00,025.7,024.4,000.0,034.1,026.9,17.5,0000.0,0005.15,0001.23,0000.86
2023-11-19 03:12:00,SystemResetWarning,0825.3,5.00,000.00,025.7,024.4,000.0,034.1,026.9,17.3,0000.0,0005.20,0001.22,0000.84
2023-11-19 03:13:00,SystemResetWarning,0825.2,4.99,000.00,025.6,024.4,000.0,034.1,026.9,17.3,0000.0,0004.80,0001.16,0000.83
2023-11-19 03:14:00,SystemResetWarning,0825.2,5.00,000.00,025.6,024.4,000.0,034.1,026.8,17.4,0000.0,0003.80,0001.09,0000.82
2023-11-19 03:15:00,SystemResetWarning,0825.1,5.00,000.00,025.6,024.4,000.0,034.1,026.8,17.5,0000.0,0003.57,0001.09,0000.83
2023-11-19 03:16:00,SystemResetWarning,0825.2,5.00,000.00,025.6,024.4,000.0,034.1,026.9,17.5,0000.0,0002.83,0001.08,0000.83
2023-11-19 03:17:00,SystemResetWarning,0825.3,5.00,000.00,025.6,024.4,000.0,034.1,026.8,17.5,0000.0,0003.80,0001.12,0000.84
2023-11-19 03:18:00,SystemResetWarning,0825.2,5.00,000.00,025.6,024.3,000.0,034.1,026.8,17.5,0000.0,0003.53,0001.16,0000.86
2023-11-19 03:19:00,SystemResetWarning,0825.2,5.00,000.00,025.6,024.3,000.0,034.0,026.8,17.6,0000.0,0003.76,0001.20,0000.86
2023-11-19 03:20:00,SystemResetWarning,0825.3,5.01,000.00,025.6,024.3,000.0,034.0,026.8,17.6,0000.0,0003.86,0001.26,0000.87
2023-11-19 03:21:00,SystemResetWarning,0825.3,5.00,000.00,025.6,024.3,000.0,034.0,026.8,17.4,0000.0,0003.78,0001.29,0000.88
2023-11-19 03:22:00,SystemResetWarning,0825.3,5.01,000.00,025.5,024.3,000.0,034.0,026.7,17.5,0000.0,0003.78,0001.30,0000.89
2023-11-19 03:23:00,SystemResetWarning,0825.3,5.00,000.00,025.5,024.3,000.0,034.0,026.7,17.7,0000.0,0004.46,0001.31,0000.90
2023-11-19 03:24:00,SystemResetWarning,0825.3,5.00,000.00,025.5,024.3,000.0,034.0,026.7,17.9,0000.0,0004.85,0001.34,0000.91
2023-11-19 03:25:00,SystemResetWarning,0825.3,5.00,000.00,025.5,024.2,000.0,034.0,026.7,18.2,0000.0,0004.97,0001.38,0000.92
2023-11-19 03:26:00,SystemResetWarning,0825.3,5.00,000.00,025.5,024.2,000.0,033.9,026.7,18.1,0000.0,0005.01,0001.42,0000.95
2023-11-19 03:27:00,SystemResetWarning,0825.3,5.00,000.00,025.5,024.2,000.0,033.9,026.7,17.8,0000.0,0005.83,0001.46,0000.97
2023-11-19 03:28:00,SystemResetWarning,0825.4,5.00,000.00,025.5,024.2,000.0,033.9,026.7,17.9,0000.0,0005.11,0001.43,0000.99
2023-11-19 03:29:00,SystemResetWarning,0825.3,5.00,000.00,025.4,024.2,000.0,033.9,026.7,17.9,0000.0,0004.98,0001.45,0001.01
2023-11-19 03:30:00,SystemResetWarning,0825.2,5.00,000.00,025.4,024.2,000.0,033.9,026.7,17.8,0000.0,0004.82,0001.48,0001.03
2023-11-19 03:31:00,SystemResetWarning,0825.1,5.00,000.00,025.4,024.2,000.0,033.9,026.7,17.7,0000.0,0005.74,0001.48,0001.05
2023-11-19 03:32:00,SystemResetWarning,0825.2,4.99,000.00,025.4,024.2,000.0,033.9,026.6,17.7,0000.0,0007.26,0001.49,0001.06
2023-11-19 03:33:00,SystemResetWarning,0825.2,5.00,000.00,025.4,024.2,000.0,033.9,026.6,17.8,0000.0,0007.71,0001.48,0001.07
2023-11-19 03:34:00,SystemResetWarning,0825.2,5.00,000.00,025.4,024.1,000.0,033.9,026.6,17.8,0000.0,0007.49,0001.52,0001.08
2023-11-19 03:35:00,SystemResetWarning,0825.2,5.01,000.00,025.4,024.1,000.0,033.8,026.6,17.8,0000.0,0007.28,0001.54,0001.09
2023-11-19 03:36:00,SystemResetWarning,0825.2,5.01,000.00,025.4,024.1,000.0,033.8,026.6,18.2,0000.0,0007.41,0001.54,0001.09
2023-11-19 03:37:00,SystemResetWarning,0825.1,5.00,000.00,025.3,024.1,000.0,033.8,026.6,18.4,0000.0,0008.03,0001.55,0001.09
2023-11-19 03:38:00,SystemResetWarning,0825.1,4.99,000.00,025.3,024.1,000.0,033.8,026.5,18.6,0000.0,0008.89,0001.56,0001.09
2023-11-19 03:39:00,SystemResetWarning,0825.1,4.99,000.00,025.3,024.1,000.0,033.8,026.5,18.8,0000.0,0008.99,0001.61,0001.10
2023-11-19 03:40:00,SystemResetWarning,0825.2,4.99,000.00,025.3,024.0,000.0,033.8,026.5,18.7,0000.0,0009.01,0001.67,0001.10
2023-11-19 03:41:00,SystemResetWarning,0825.2,5.00,000.00,025.3,024.0,000.0,033.8,026.5,18.5,0000.0,0009.24,0001.69,0001.11
2023-11-19 03:42:00,SystemResetWarning,0825.3,5.00,000.00,025.3,023.9,000.0,033.7,026.5,18.2,0000.0,0009.71,0001.68,0001.12
2023-11-19 03:43:00,SystemResetWarning,0825.3,5.00,000.00,025.3,023.9,000.0,033.7,026.5,18.8,0000.0,0009.41,0001.69,0001.13
2023-11-19 03:44:00,SystemResetWarning,0825.3,5.00,000.00,025.2,023.9,000.0,033.7,026.4,18.6,0000.0,0009.02,0001.73,0001.13
2023-11-19 03:45:00,SystemResetWarning,0825.3,5.00,000.00,025.2,023.8,000.0,033.7,026.4,18.3,0000.0,0009.59,0001.72,0001.11
2023-11-19 03:46:00,SystemResetWarning,0825.4,5.00,000.00,025.2,023.8,000.0,033.7,026.4,18.6,0000.0,0009.59,0001.72,0001.09
2023-11-19 03:47:00,SystemResetWarning,0825.2,5.00,000.00,025.2,023.8,000.0,033.7,026.4,18.3,0000.0,0009.65,0001.73,0001.09
2023-11-19 03:48:00,SystemResetWarning,0825.3,4.99,000.00,025.2,023.8,000.0,033.6,026.4,16.9,0000.0,0009.70,0001.69,0001.06
2023-11-19 03:49:00,SystemResetWarning,0825.4,5.00,000.00,025.1,023.8,000.0,033.6,026.3,17.0,0000.0,0008.48,0001.62,0001.03
2023-11-19 03:50:00,SystemResetWarning,0825.5,5.00,000.00,025.1,023.8,000.0,033.6,026.3,17.0,0000.0,0007.78,0001.56,0001.00
2023-11-19 03:51:00,SystemResetWarning,0825.6,5.01,000.00,025.1,023.8,000.0,033.6,026.4,17.0,0000.0,0007.66,0001.46,0000.96
2023-11-19 03:52:00,SystemResetWarning,0825.6,5.01,000.00,025.1,023.9,000.0,033.6,026.4,16.7,0000.0,0007.46,0001.37,0000.92
2023-11-19 03:53:00,SystemResetWarning,0825.6,4.99,000.00,025.1,023.9,000.0,033.6,026.3,15.9,0000.0,0006.43,0001.30,0000.89
2023-11-19 03:54:00,SystemResetWarning,0825.5,4.99,000.00,025.1,023.9,000.0,033.6,026.3,15.9,0000.0,0006.64,0001.28,0000.86
2023-11-19 03:55:00,SystemResetWarning,0825.5,5.01,000.00,025.1,023.9,000.0,033.6,026.4,16.3,0000.0,0006.06,0001.26,0000.87
2023-11-19 03:56:00,SystemResetWarning,0825.4,5.01,000.00,025.1,024.0,000.0,033.6,026.4,16.4,0000.0,0005.15,0001.26,0000.88
2023-11-19 03:57:00,SystemResetWarning,0825.4,5.00,000.00,025.1,024.0,000.0,033.6,026.4,16.5,0000.0,0004.93,0001.25,0000.90
2023-11-19 03:58:00,SystemResetWarning,0825.4,5.00,000.00,025.1,024.0,000.0,033.5,026.4,16.3,0000.0,0004.87,0001.23,0000.90
2023-11-19 03:59:00,SystemResetWarning,0825.3,5.00,000.00,025.1,024.0,000.0,033.5,026.3,16.5,0000.0,0004.07,0001.26,0000.93
